Total_Precipitation_Accumulation
0.19 0.23 0.21 0.24 0.21 0.32 0.46 0.50 0.45 0.57 0.69 0.63 0.53 0.49 0.51 0.50 0.43 0.49 0.50 0.41 0.33 0.39 0.57 0.60 0.53 0.48 0.47 0.40 0.36 0.39 0.43 0.42 0.42 0.37 0.29 0.27 0.33 0.39 0.37 0.31 0.28 0.25 0.25
0.35 0.41 0.41 0.44 0.40 0.48 0.61 0.67 0.66 0.93 0.88 0.83 0.70 0.62 0.58 0.58 0.54 0.49 0.46 0.45 0.39 0.33 0.38 0.49 0.55 0.52 0.49 0.44 0.38 0.35 0.35 0.36 0.33 0.25 0.20 0.20 0.27 0.35 0.34 0.31 0.26 0.21 0.17
0.57 0.64 0.69 0.68 0.76 0.79 0.88 0.90 0.99 1.10 0.90 0.84 0.70 0.64 0.57 0.52 0.46 0.44 0.46 0.50 0.47 0.38 0.28 0.32 0.42 0.45 0.49 0.51 0.48 0.44 0.36 0.31 0.30 0.22 0.16 0.15 0.22 0.31 0.31 0.29 0.24 0.18 0.12
0.77 0.90 0.88 0.86 1.12 1.21 1.25 1.31 1.36 1.33 1.21 1.09 0.87 0.66 0.55 0.53 0.39 0.32 0.31 0.33 0.36 0.29 0.26 0.33 0.38 0.40 0.46 0.52 0.58 0.56 0.50 0.44 0.38 0.30 0.21 0.16 0.22 0.29 0.27 0.25 0.22 0.15 0.10
0.94 1.08 0.98 1.07 1.30 1.40 1.46 1.38 1.55 1.48 1.42 1.33 1.07 0.80 0.58 0.44 0.33 0.26 0.20 0.18 0.22 0.22 0.19 0.23 0.27 0.30 0.44 0.59 0.64 0.64 0.62 0.60 0.52 0.42 0.36 0.30 0.28 0.27 0.27 0.26 0.23 0.18 0.13
1.08 1.25 1.14 1.22 1.42 1.53 1.50 1.54 1.58 1.58 1.47 1.42 1.10 0.79 0.59 0.40 0.28 0.21 0.17 0.15 0.13 0.13 0.14 0.18 0.28 0.27 0.38 0.52 0.56 0.62 0.67 0.67 0.61 0.54 0.52 0.49 0.47 0.43 0.36 0.33 0.32 0.29 0.22
1.07 1.28 1.22 1.34 1.39 1.36 1.40 1.56 1.67 1.49 1.33 1.49 1.25 0.74 0.45 0.33 0.27 0.24 0.24 0.24 0.18 0.15 0.15 0.18 0.23 0.31 0.37 0.41 0.45 0.52 0.67 0.74 0.70 0.64 0.60 0.61 0.69 0.75 0.57 0.52 0.53 0.48 0.39
1.18 1.19 1.20 1.20 1.22 1.31 1.37 1.45 1.64 1.45 1.15 1.33 1.30 1.03 0.57 0.41 0.36 0.27 0.29 0.30 0.25 0.22 0.21 0.23 0.28 0.40 0.42 0.50 0.54 0.43 0.58 0.80 0.82 0.82 0.75 0.74 0.84 0.94 0.80 0.79 0.74 0.63 0.54
1.09 1.10 1.10 1.20 1.36 1.43 1.34 1.35 1.43 1.37 1.11 1.12 1.25 1.29 0.89 0.61 0.44 0.23 0.24 0.28 0.35 0.40 0.35 0.36 0.37 0.44 0.49 0.57 0.73 0.70 0.51 0.58 0.69 0.86 0.95 0.92 0.89 0.90 1.00 1.09 0.99 0.80 0.61
1.04 1.03 1.06 1.09 1.11 1.12 1.10 1.04 1.14 1.25 1.21 1.06 1.16 1.22 1.16 1.02 0.82 0.45 0.32 0.34 0.45 0.49 0.49 0.44 0.38 0.39 0.52 0.72 0.89 0.94 0.82 0.68 0.60 0.76 0.96 1.03 0.95 0.89 1.04 1.21 1.30 1.09 0.75
0.95 0.94 0.90 0.88 0.83 0.83 0.90 0.93 0.99 1.05 1.09 1.05 1.07 1.14 1.16 1.16 1.17 0.98 0.62 0.59 0.59 0.50 0.53 0.50 0.46 0.46 0.56 0.71 0.82 0.87 0.96 0.83 0.77 0.71 0.68 0.78 0.86 0.87 0.93 1.14 1.44 1.46 1.16
0.80 0.79 0.80 0.81 0.77 0.78 0.84 0.88 0.90 0.87 0.92 0.97 1.03 1.09 1.12 1.12 1.20 1.27 1.00 0.85 0.73 0.60 0.62 0.56 0.52 0.53 0.60 0.67 0.64 0.76 0.75 0.70 0.68 0.69 0.64 0.69 0.68 0.71 0.80 1.01 1.30 1.53 1.54
0.61 0.62 0.62 0.69 0.72 0.79 0.79 0.76 0.81 0.85 0.92 0.95 0.98 1.04 1.08 1.04 1.06 1.13 1.12 0.95 0.84 0.73 0.72 0.69 0.59 0.58 0.56 0.65 0.61 0.52 0.41 0.36 0.36 0.39 0.39 0.45 0.50 0.56 0.66 0.78 0.96 1.16 1.36
0.51 0.54 0.62 0.72 0.78 0.81 0.79 0.79 0.76 0.79 0.88 0.93 0.97 1.07 0.99 0.91 0.95 1.02 1.09 1.07 0.91 0.83 0.87 0.75 0.64 0.57 0.56 0.57 0.50 0.37 0.29 0.23 0.21 0.20 0.18 0.20 0.25 0.31 0.42 0.56 0.70 0.81 0.92
0.52 0.55 0.62 0.71 0.83 0.92 0.93 0.89 0.86 0.89 1.01 1.07 1.14 1.14 1.02 0.93 0.94 0.99 1.11 1.17 1.07 0.88 0.81 0.81 0.69 0.56 0.52 0.46 0.37 0.35 0.36 0.27 0.19 0.14 0.11 0.11 0.14 0.17 0.24 0.34 0.46 0.58 0.66
0.48 0.53 0.60 0.66 0.68 0.73 0.76 0.75 0.83 0.92 1.01 1.04 1.02 1.03 1.02 0.99 1.02 0.99 1.07 1.15 1.16 1.04 0.79 0.82 0.77 0.57 0.58 0.39 0.34 0.33 0.31 0.25 0.17 0.13 0.09 0.09 0.10 0.13 0.17 0.21 0.29 0.38 0.49
0.42 0.46 0.51 0.51 0.51 0.52 0.54 0.57 0.67 0.79 0.85 0.82 0.75 0.76 0.75 0.77 0.80 0.80 0.84 0.91 1.00 1.02 0.78 0.79 0.95 0.80 0.72 0.56 0.44 0.40 0.28 0.22 0.22 0.16 0.11 0.08 0.09 0.11 0.16 0.17 0.20 0.25 0.30
0.36 0.39 0.40 0.41 0.39 0.42 0.48 0.54 0.62 0.68 0.73 0.70 0.66 0.62 0.56 0.59 0.65 0.64 0.66 0.72 0.83 0.97 0.88 0.76 0.85 0.91 0.83 0.67 0.58 0.52 0.38 0.27 0.27 0.23 0.15 0.11 0.10 0.11 0.16 0.19 0.19 0.20 0.23
0.28 0.31 0.35 0.38 0.41 0.48 0.56 0.67 0.73 0.72 0.63 0.55 0.48 0.43 0.39 0.41 0.48 0.51 0.56 0.61 0.66 0.88 0.90 0.81 0.79 0.93 0.91 0.76 0.75 0.63 0.56 0.55 0.39 0.32 0.21 0.15 0.15 0.16 0.17 0.22 0.22 0.23 0.23
0.30 0.35 0.40 0.47 0.54 0.58 0.61 0.63 0.64 0.65 0.60 0.50 0.40 0.31 0.27 0.30 0.37 0.43 0.48 0.52 0.55 0.63 0.72 0.76 0.77 0.86 0.87 0.75 0.83 0.80 0.72 0.68 0.59 0.46 0.38 0.24 0.19 0.21 0.23 0.23 0.25 0.29 0.31
0.25 0.37 0.44 0.49 0.57 0.55 0.53 0.52 0.48 0.43 0.40 0.38 0.33 0.26 0.24 0.24 0.26 0.30 0.34 0.41 0.45 0.49 0.53 0.60 0.67 0.75 0.86 0.77 0.70 0.75 0.76 0.74 0.74 0.75 0.77 0.53 0.31 0.26 0.27 0.28 0.29 0.36 0.44
0.20 0.27 0.30 0.34 0.40 0.38 0.33 0.31 0.31 0.30 0.28 0.27 0.26 0.21 0.19 0.19 0.20 0.22 0.24 0.25 0.27 0.29 0.35 0.44 0.51 0.59 0.70 0.75 0.69 0.71 0.75 0.74 0.79 0.83 0.94 1.01 0.77 0.57 0.46 0.31 0.27 0.34 0.46
0.21 0.24 0.23 0.22 0.25 0.28 0.25 0.21 0.21 0.22 0.24 0.24 0.22 0.17 0.12 0.12 0.13 0.11 0.12 0.14 0.17 0.16 0.18 0.28 0.30 0.30 0.37 0.43 0.50 0.65 0.79 0.82 0.90 1.02 1.04 1.19 1.32 1.14 0.77 0.50 0.38 0.31 0.37
0.29 0.30 0.24 0.22 0.21 0.21 0.19 0.18 0.17 0.18 0.22 0.24 0.24 0.17 0.12 0.09 0.09 0.09 0.10 0.12 0.10 0.07 0.07 0.10 0.11 0.13 0.17 0.21 0.25 0.31 0.51 0.78 0.91 1.05 1.14 1.32 1.50 1.76 1.40 0.91 0.67 0.49 0.45
0.31 0.32 0.27 0.24 0.24 0.22 0.18 0.16 0.19 0.24 0.27 0.28 0.28 0.23 0.16 0.11 0.08 0.07 0.09 0.09 0.07 0.05 0.05 0.06 0.09 0.10 0.11 0.12 0.13 0.17 0.23 0.34 0.59 0.95 1.17 1.38 1.53 1.71 2.06 1.70 1.06 0.66 0.48
0.31 0.29 0.28 0.32 0.32 0.29 0.23 0.19 0.19 0.22 0.27 0.30 0.34 0.30 0.22 0.15 0.10 0.08 0.08 0.07 0.05 0.03 0.03 0.04 0.07 0.08 0.08 0.08 0.08 0.10 0.10 0.15 0.26 0.49 0.73 0.87 1.03 1.24 1.75 2.11 1.81 1.22 0.80